Location: ??????
(55.6130°N, 37.7882°E)
Time: 14:03:13
(UTC+00:00)

Cosmos 1461 - Pass Details

Date: 14 April 2024
Orbit: 499 x 586 km, 65.0° (Epoch: 18 May)

Event Time Altitude Azimuth Distance (km) Brightness Sun altitude
Rises 00:53:53 0° 308° (NW) 2,636 6.2 -12.3°
Reaches altitude 10° 00:56:18 10° 295° (WNW) 1,733 5.1 -12.0°
Maximum altitude 00:59:32 26° 239° (WSW) 1,031 3.6 -11.6°
Drops below altitude 10° 01:02:43 10° 182° (S) 1,704 5.0 -11.3°
Sets 01:05:05 0° 169° (S) 2,581 6.0 -11.0°
